Oakland, CA

2:52 PM PDT on July 20, 2017 (GMT -0700)
Metro Oakland International

Weather History for KOAK - October, 2012

Change the Weather History Date:

Monday, October 22, 2012

  Actual Average Record
Temperature  
Mean Temperature 58 °F 60 °F  
Max Temperature 65 °F 69 °F 84 °F (2011)
Min Temperature 51 °F 51 °F 40 °F (1949)
Degree Days  
Heating Degree Days 7 6  
Month to date heating degree days 68 93  
Since 1 July heating degree days 366 293  
Cooling Degree Days 0 0  
Month to date cooling degree days 31 12  
Year to date cooling degree days 59 137  
Growing Degree Days 8 (Base 50)    
Moisture  
Dew Point 51 °F    
Average Humidity 74    
Maximum Humidity 100    
Minimum Humidity 48    
Precipitation  
Precipitation 0.44 in 0.03 in 0.45 in (1973)
Month to date precipitation 0.51 0.65  
Year to date precipitation 12.48 14.15  
Since 1 July precipitation 0.54  
Sea Level Pressure  
Sea Level Pressure 29.84 in    
Wind  
Wind Speed 15 mph (SSW)    
Max Wind Speed 24 mph    
Max Gust Speed 30 mph    
Visibility 8 miles    
Events Rain    
T = Trace of Precipitation, MM = Missing Value Source: NWS Daily Summary

Daily Weather History Graph

Daily Weather History Graph

Search for Another Location

Airport or City:

Trip Planner

Search our weather history database for the weather conditions in past years. The results will help you decide how hot, cold, wet, or windy it might be!

Date:

Astronomy

Oct. 22, 2012 Rise Set
Actual Time 7:24 AM PDT 6:21 PM PDT
Civil Twilight 6:57 AM PDT 6:48 PM PDT
Nautical Twilight 6:27 AM PDT 7:18 PM PDT
Astronomical Twilight 5:56 AM PDT 7:49 PM PDT
Moon 2:26 PM PDT (10/22) 12:24 AM PDT (10/22)
Length of Visible Light 11h 50m
Length of Day
10h 56m
First Quarter, 57% of the Moon is Illuminated
Oct 22
First Quarter
Oct 29
Full
Nov 6
Last Quarter
Nov 13
New
Nov 20
First Quarter

Hourly Weather History & Observations

Time (PDT) Temp. Dew Point Humidity Pressure Visibility Wind Dir Wind Speed Gust Speed Precip Events Conditions
12:53 AM 57.0 °F 51.1 °F 81% 29.85 in 10.0 mi SSW 11.5 mph - 0.04 in Rain Light Rain
1:17 AM 57.2 °F 51.8 °F 82% 29.86 in 7.0 mi SSW 10.4 mph - 0.02 in Rain Light Rain
1:53 AM 54.0 °F 53.1 °F 97% 29.86 in 6.0 mi South 12.7 mph - 0.11 in Rain Rain
2:41 AM 53.6 °F 51.8 °F 94% 29.84 in 3.0 mi SSE 12.7 mph - 0.04 in Rain Light Rain
2:53 AM 52.0 °F 51.1 °F 97% 29.83 in 4.0 mi SE 16.1 mph - 0.04 in Rain Light Rain
3:01 AM 51.8 °F 51.8 °F 100% 29.82 in 2.5 mi SE 13.8 mph - 0.02 in Rain Rain
3:08 AM 53.6 °F 51.8 °F 94% 29.83 in 2.5 mi South 17.3 mph - 0.03 in Rain Rain
3:11 AM 53.6 °F 51.8 °F 94% 29.83 in 4.0 mi South 12.7 mph - 0.04 in Rain Rain
3:38 AM 53.6 °F 51.8 °F 94% 29.80 in 10.0 mi SE 9.2 mph - 0.04 in   Overcast
3:53 AM 53.1 °F 50.0 °F 89% 29.79 in 10.0 mi SE 12.7 mph - 0.04 in   Overcast
5:18 AM 55.4 °F 50.0 °F 82% 29.76 in 10.0 mi SE 18.4 mph - 0.00 in Rain Light Rain
5:42 AM 55.4 °F 50.0 °F 82% 29.75 in 10.0 mi SE 20.7 mph - 0.01 in Rain Light Rain
5:53 AM 55.9 °F 50.0 °F 80% 29.75 in 8.0 mi SSE 19.6 mph - 0.02 in Rain Light Rain
6:10 AM 57.2 °F 51.8 °F 82% 29.75 in 10.0 mi SSE 21.9 mph 26.5 mph 0.00 in Rain Light Rain
6:48 AM 57.2 °F 51.8 °F 82% 29.74 in 10.0 mi SSE 23.0 mph 28.8 mph 0.01 in Rain Light Rain
6:53 AM 57.0 °F 52.0 °F 83% 29.74 in 10.0 mi SSE 19.6 mph - 0.01 in Rain Light Rain
7:13 AM 57.2 °F 53.6 °F 88% 29.75 in 2.5 mi South 18.4 mph - N/A Rain Light Rain
7:23 AM 55.4 °F 53.6 °F 94% 29.76 in 3.0 mi SSE 19.6 mph - N/A Rain Light Rain
7:38 AM 55.4 °F 53.6 °F 94% 29.76 in 2.0 mi SSE 18.4 mph - 0.08 in Rain Rain
7:53 AM 55.0 °F 53.1 °F 93% 29.77 in 2.0 mi SSE 17.3 mph - 0.13 in Rain Rain
8:14 AM 55.4 °F 53.6 °F 94% 29.78 in 3.0 mi SSE 19.6 mph - 0.02 in Rain Light Rain
8:48 AM 55.4 °F 53.6 °F 94% 29.80 in 2.5 mi South 15.0 mph - 0.07 in Rain Rain
8:53 AM 57.0 °F 54.0 °F 89% 29.80 in 3.0 mi SW 17.3 mph 20.7 mph 0.07 in Rain Light Rain
8:58 AM 57.2 °F 53.6 °F 88% 29.80 in 8.0 mi WSW 16.1 mph - 0.01 in Rain Light Rain
9:53 AM 55.9 °F 53.1 °F 90% 29.84 in 10.0 mi West 15.0 mph - 0.01 in   Mostly Cloudy
10:22 AM 55.4 °F 53.6 °F 94% 29.85 in 10.0 mi West 9.2 mph - N/A   Mostly Cloudy
10:53 AM 59.0 °F 52.0 °F 78% 29.86 in 10.0 mi West 9.2 mph - N/A   Scattered Clouds
11:53 AM 61.0 °F 52.0 °F 72% 29.89 in 10.0 mi West 12.7 mph - N/A   Scattered Clouds
12:37 PM 60.8 °F 51.8 °F 72% 29.90 in 10.0 mi West 8.1 mph - N/A   Mostly Cloudy
12:53 PM 61.0 °F 50.0 °F 67% 29.89 in 10.0 mi West 9.2 mph - N/A   Mostly Cloudy
1:28 PM 62.6 °F 50.0 °F 63% 29.89 in 10.0 mi West 9.2 mph - N/A   Scattered Clouds
1:53 PM 63.0 °F 48.9 °F 60% 29.89 in 10.0 mi WSW 9.2 mph - N/A   Scattered Clouds
2:53 PM 64.0 °F 46.9 °F 54% 29.89 in 10.0 mi WSW 12.7 mph - N/A   Scattered Clouds
3:53 PM 63.0 °F 46.0 °F 54% 29.90 in 10.0 mi WSW 13.8 mph - N/A   Scattered Clouds
4:53 PM 63.0 °F 46.0 °F 54% 29.90 in 10.0 mi WSW 16.1 mph - N/A   Scattered Clouds
5:53 PM 64.4 °F 44.6 °F 49% 29.90 in 10.0 mi SW 12.7 mph - N/A   Scattered Clouds
6:53 PM 60.1 °F 46.0 °F 60% 29.90 in 10.0 mi SW 15.0 mph - N/A   Scattered Clouds
7:53 PM 60.1 °F 46.9 °F 62% 29.92 in 10.0 mi SSW 13.8 mph - N/A   Scattered Clouds
8:53 PM 60.1 °F 48.9 °F 67% 29.92 in 10.0 mi SSW 17.3 mph - N/A   Mostly Cloudy
9:50 PM 55.4 °F 50.0 °F 82% 29.94 in 10.0 mi NW 5.8 mph - 0.00 in Rain Light Rain
9:53 PM 55.4 °F 50.0 °F 82% 29.94 in 10.0 mi NNW 5.8 mph - N/A Rain Light Rain
10:34 PM 55.4 °F 51.8 °F 88% 29.94 in 10.0 mi SW 12.7 mph - 0.02 in   Mostly Cloudy
10:53 PM 55.4 °F 51.8 °F 88% 29.94 in 10.0 mi WSW 17.3 mph - N/A   Mostly Cloudy
11:53 PM 57.0 °F 50.0 °F 77% 29.94 in 10.0 mi SW 20.7 mph - N/A   Mostly Cloudy